STARLINK-37915, 69722

Orbit data source: Space-Track

STARLINK-37915, 69722 is a payload satellite owned by SpaceX/Seattle (US) in SSO that was launched on Sun, 28 Jun 2026 UTC via an FALCON 9 launch vehicle from the Air Force Western Test Range (AFWTR). Payload-class satellites include a variety of spacecraft equipped with specific instruments for various scientific and technological missions. These include communications satellites like Starlink; space stations such as the ISS; scientific satellites like the Hubble; Earth observation satellites from companies like Planet Labs, Umbra, and HawkEye 360; GPS; miniature CubeSats for education and research; and military/defense satellites.

Loading next visibility...
Identifier
69722, 2026-147U
Orbit
SSO
Country
Flag of USUS
Related business
Manufacturer
SpaceX/Seattle
Mission
Operational spacecraft
Bus & Motor
STARLINK V2MO, Unknown motor
Mass
575 kg wet, ~530 kg dry
Launch date (UTC)
2026-06-28 (2 weeks ago)
Launch vehicle
FALCON 9
Launch site
Air Force Western Test Range (AFWTR)
Object type
Payload
Rocket body
Debris
Shape & HBR
Unknown shape, 17.7 m
Radar Cross Section
Large (>1 m²)

Expand to show TLE details & history
Last TLE update: 8 hours ago

TLE from 8 hours ago
0 STARLINK-37915
1 69722U 26147U   26193.05386637  .00158452  00000-0  81082-3 0  9992
2 69722  97.2856 229.2920 0000908 109.5451 250.5915 15.80875943  3362
Epoch: 2026-07-12T01:17Z
TLE epoch observation values (Epoch: 2026-07-12T01:17:34.054Z)
Latitude
-0.00005°
Longitude
-80.05813°
Altitude
331.341 km
Speed
7.71 km/s
True Right ascension
15h 17m 10s
True Declination
0° 00' 00"
Sunlit
Object was in full shadow at epoch
Visualization orbit readout
Latitude
Unknown
Longitude
Unknown
Altitude
Unknown
Speed
Unknown
Apparent Right ascension
Unknown
Apparent Declination
Unknown
Sunlit
N/A
Visualization observer readout
Local Sidereal Time
21:48:49
Azimuth
Unknown
Elevation
Unknown
Doppler factor
Unknown
Orbital elements
Apogee altitude
325.451 km
Perigee altitude
324.234 km
Semi-major axis
6,702.979 km
Eccentricity
0.00009
Inclination
97.2856°
RAAN
229.292°
Arg. of periapsis
109.5451°
True anomaly
250.58169°
Mean anomaly
250.5915°
Eccentric anomaly
250.58659°
Mean motion
3.95495 °/min
Orbital period
91.03 mins
BSTAR
0.00081082
Loading maneuver chart data...
Computing Atmospheric mass density...
Loading historical data...
Loading historical data...
Loading historical data...
Loading historical data...
Loading historical data...
Loading historical data...
Loading historical data...

Documentation

Showing up to 5 results
|